Location: Kershaw
(34.5481°N, 80.5823°W)
Time: 03:40:59
(UTC+00:00)

Explorer 7 - Pass Details

Date: 06 October 2022
Orbit: 481 x 665 km, 50.3° (Epoch: 30 November)

Event Time Altitude Azimuth Distance (km) Brightness Sun altitude
Rises 18:06:44 0° 312° (NW) 2,993 10.4 48.0°
Reaches altitude 10° 18:10:43 10° 344° (NNW) 2,057 9.5 47.7°
Maximum altitude 18:12:28 12° 6° (N) 1,920 9.3 47.5°
Drops below altitude 10° 18:14:13 10° 28° (NNE) 2,026 9.4 47.4°
Sets 18:18:03 0° 60° (ENE) 2,890 10.2 47.1°
